Home   Weather   Tianjin   Past weeks

Flag for China Past Weather in Tianjin, Tianjin Municipality, China — Yesterday and Last 2 Weeks

Now
63 °F

Fog.


Feels Like: 63 °F
Forecast: 63 / 78 °F
Wind: 6 mph from North

Location: Tianjin / Zhangguizhu

Current Time: May 30, 2017 at 5:07:51 am

Latest Report: May 30, 2017 at 4:30 am


Visibility: 2 mi

Pressure: 29.80 "Hg

Humidity: 88%

Dew Point: 59 °F

Location of TianjinLocation

Past Weather in Tianjin — Graph

°F

Tianjin Temperature Yesterday

Maximum temperature yesterday: 75 °F (at 8:30 am)
Minimum temperature yesterday: 63 °F (at 11:30 pm)
Average temperature yesterday: 71 °F

High & Low Weather Summary for the Past Weeks

 TemperatureHumidityPressure
High99 °F (May 19, 3:30 pm)94% (May 22, 3:30 am)30.04 "Hg (May 22, 3:30 am)
Low57 °F (May 23, 3:30 am)9% (May 24, 2:30 pm)29.59 "Hg (May 27, 5:30 pm)
Average75 °F47%29.80 "Hg
* Reported May 15 3:00 am — May 30 3:30 am, Tianjin. Weather by CustomWeather, © 2017

Note: Actual official high and low records may vary slightly from our data, if they occured in-between our weather recording intervals... More about our weather records

Advertising

Tianjin Weather History for the Previous 24 Hours

Scroll right to see more
 ConditionsComfort  
Time TempWeatherWind HumidityBarometerVisibility
3:30 am
Tue, May 30
63 °FClear.No wind83%29.77 "Hg4 mi
3:00 am63 °FClear.1 mph83%29.77 "Hg4 mi
2:30 am63 °FClear.8 mph83%29.77 "Hg4 mi
2:00 am63 °FClear.6 mph88%29.77 "Hg4 mi
1:30 am63 °FClear.3 mph83%29.77 "Hg4 mi
1:00 am63 °FClear.6 mph83%29.80 "Hg5 mi
12:30 am63 °FFog.8 mph88%29.80 "Hg3 mi
12:00 am63 °FLight rain. Fog.3 mph88%29.83 "Hg2 mi
11:30 pm
Mon, May 29
63 °FLight rain. Fog.6 mph88%29.83 "Hg3 mi
11:00 pm64 °FThunderstorms. Passing clouds.8 mph83%29.83 "Hg4 mi
10:30 pm66 °FThunderstorms. Passing clouds.6 mph68%29.86 "HgN/A
10:00 pm68 °FThundershowers. Passing clouds.3 mph56%29.86 "HgN/A
9:30 pm68 °FClear.6 mph56%29.86 "Hg10 mi
9:00 pm68 °FClear.3 mph60%29.83 "Hg10 mi
8:30 pm68 °FClear.6 mph60%29.83 "Hg10 mi
7:30 pm68 °FClear.3 mph60%29.83 "Hg10 mi
7:00 pm68 °FSunny.8 mph56%29.83 "Hg10 mi
6:30 pm68 °FSunny.3 mph56%29.83 "Hg10 mi
6:00 pm68 °FSunny.8 mph56%29.83 "Hg10 mi
5:30 pm68 °FSunny.10 mph56%29.83 "Hg10 mi
4:30 pm70 °FSunny.13 mph50%29.83 "Hg10 mi
4:00 pm68 °FSunny.15 mph53%29.86 "Hg10 mi
3:30 pm70 °FSunny.15 mph50%29.86 "Hg10 mi
3:00 pm70 °FPassing clouds.15 mph46%29.86 "HgN/A
2:30 pm72 °FSunny.15 mph41%29.86 "Hg10 mi
2:00 pm73 °FSunny.17 mph41%29.86 "Hg10 mi
1:30 pm75 °FPassing clouds.17 mph27%29.89 "HgN/A
1:00 pm75 °FSunny.17 mph24%29.89 "Hg10 mi
12:30 pm73 °FSunny.20 mph25%29.89 "Hg10 mi
12:00 pm75 °FSunny.20 mph27%29.89 "Hg10 mi
11:30 am75 °FSunny.24 mph22%29.89 "Hg10 mi
11:00 am75 °FSunny.24 mph21%29.89 "Hg10 mi
10:30 am75 °FSunny.22 mph21%29.89 "Hg10 mi
10:00 am75 °FSunny.22 mph25%29.86 "Hg10 mi
9:30 am75 °FSunny.20 mph25%29.89 "Hg10 mi
8:30 am75 °FSunny.24 mph21%29.86 "Hg10 mi
8:00 am73 °FSunny.22 mph23%29.89 "Hg10 mi
7:30 am73 °FSunny.26 mph29%29.86 "Hg10 mi
7:00 am72 °FSunny.20 mph50%29.86 "Hg10 mi
6:30 am73 °FClear.15 mph57%29.86 "Hg4 mi
6:00 am72 °FClear.10 mph65%29.83 "Hg4 mi
5:30 am72 °FClear.8 mph61%29.83 "Hg4 mi
5:00 am70 °FClear.13 mph69%29.80 "Hg4 mi
Weather by CustomWeather, © 2017

See weather overviewHow to use our weather pages